Location: Baia Mare
(47.6567°N, 23.5850°E)
Time: 05:46:14
(UTC+03:00)

ISS - Pass Details

Date: 04 September 2018
Orbit: 403 x 408 km, 51.6° (Epoch: 25 September)

Event Time Altitude Azimuth Distance (km) Brightness Sun altitude
Exits shadow 05:47:59 16° 255° (WSW) 1,147 -2.2 -10.4°
Maximum altitude 05:50:28 73° 338° (NNW) 428 -3.8 -10.0°
Drops below altitude 10° 05:53:45 10° 65° (ENE) 1,463 0.7 -9.5°
Sets 05:55:50 0° 67° (ENE) 2,324 2.5 -9.2°
